DLH8WE EDDH-EDDF

Flight info

Callsign DLH8WE
Flight time N/A
Altitude 32000
Route AMLUH2G/33 AMLUH M852 DENIX DCT RIMET T157 KERAX KERAX5A
Aircraft A20N/M-SDE2E3FGHIRWXY/LB1

Departure

Time 2026-04-23 17:08
Airport Hamburg Helmut Schmidt Airport (EDDH)

Arrival

Time N/A
Airport Frankfurt Main Airport (EDDF)
Time Latitude Longitude Altitude Speed Heading
2026-04-23 16:16 53.63168 10.00361 42 ft 0 kts 86°
2026-04-23 16:57 53.63168 10.00350 42 ft 2 kts 85°
2026-04-23 16:57 53.63166 10.00325 41 ft 2 kts 86°
2026-04-23 16:57 53.63165 10.00300 40 ft 2 kts 85°
2026-04-23 16:57 53.63166 10.00274 39 ft 2 kts 117°
2026-04-23 16:58 53.63176 10.00255 38 ft 2 kts 152°
2026-04-23 16:58 53.63185 10.00249 38 ft 1 kts 174°
2026-04-23 16:58 53.63192 10.00249 38 ft 0 kts 176°
2026-04-23 17:01 53.63187 10.00249 38 ft 2 kts 179°
2026-04-23 17:02 53.63174 10.00240 38 ft 4 kts 217°
2026-04-23 17:02 53.63113 10.00194 36 ft 8 kts 180°
2026-04-23 17:02 53.63057 10.00170 37 ft 8 kts 209°
2026-04-23 17:02 53.63002 10.00110 37 ft 10 kts 214°
2026-04-23 17:03 53.62954 10.00058 36 ft 6 kts 212°
2026-04-23 17:03 53.62920 9.99992 34 ft 9 kts 241°
2026-04-23 17:03 53.62901 9.99931 33 ft 2 kts 243°
2026-04-23 17:03 53.62897 9.99917 33 ft 0 kts 243°
2026-04-23 17:05 53.62886 9.99882 32 ft 7 kts 243°
2026-04-23 17:06 53.62859 9.99783 31 ft 7 kts 258°
2026-04-23 17:06 53.62891 9.99724 30 ft 2 kts 335°
2026-04-23 17:06 53.62891 9.99723 30 ft 0 kts 334°
2026-04-23 17:07 53.63119 9.99523 31 ft 76 kts 333°
2026-04-23 17:07 53.63805 9.98937 36 ft 142 kts 333°
2026-04-23 17:08 53.64756 9.98124 515 ft 156 kts 330°
2026-04-23 17:08 53.65682 9.97300 1382 ft 151 kts 332°
2026-04-23 17:08 53.66582 9.96521 2216 ft 150 kts 333°
2026-04-23 17:08 53.67541 9.95699 2798 ft 165 kts 333°
2026-04-23 17:09 53.68637 9.94906 3298 ft 186 kts 346°
2026-04-23 17:09 53.69943 9.94685 4122 ft 193 kts 358°
2026-04-23 17:09 53.71281 9.94710 4771 ft 195 kts 358°
2026-04-23 17:09 53.72612 9.95163 5063 ft 204 kts 25°
2026-04-23 17:10 53.73650 9.96959 5624 ft 227 kts 57°
2026-04-23 17:10 53.74010 9.99527 6644 ft 235 kts 78°
2026-04-23 17:10 53.74140 10.02224 7570 ft 237 kts 83°
2026-04-23 17:10 53.73793 10.05042 8316 ft 258 kts 109°
2026-04-23 17:11 53.72931 10.07793 8873 ft 278 kts 115°
2026-04-23 17:11 53.71927 10.10684 9411 ft 296 kts 116°
2026-04-23 17:11 53.70855 10.13719 10030 ft 309 kts 116°
2026-04-23 17:11 53.69771 10.16854 10848 ft 315 kts 116°
2026-04-23 17:12 53.68382 10.19799 11326 ft 339 kts 137°
2026-04-23 17:12 53.66256 10.21797 11738 ft 361 kts 161°
2026-04-23 17:12 53.63786 10.22930 12193 ft 377 kts 165°
2026-04-23 17:12 53.61250 10.23988 12884 ft 384 kts 165°
2026-04-23 17:13 53.58639 10.25099 13685 ft 387 kts 165°
2026-04-23 17:13 53.56048 10.26239 14470 ft 390 kts 164°
2026-04-23 17:13 53.53430 10.27418 15264 ft 393 kts 164°
2026-04-23 17:13 53.50822 10.28605 16002 ft 396 kts 163°
2026-04-23 17:14 53.48170 10.29816 16717 ft 399 kts 163°
2026-04-23 17:14 53.45509 10.31030 17431 ft 402 kts 163°
2026-04-23 17:14 53.42805 10.32263 18131 ft 404 kts 164°